sat.trackr.live / text

‹ back to catalog

STARLINK-30919

NORAD 58411 · 2023-180K

PAYLOAD ACTIVE UNKNOWN

§ Identity

Operator
Country
US
Launch date
2023-11-22
Launch site
AFETR
Launch vehicle
Mass (kg)
RCS (m²)

Purposes: comms

External: N2YO · Heavens-Above · Gunter

§ Orbital elements

Epoch: 2026-09-19T17:05:37.127328Z

Period
94.27 min
Inclination
43.0036°
Eccentricity
0.0001665
Mean motion
15.27578796 rev/d
Perigee alt
481.9 km
Apogee alt
484.2 km
Semi-major
6,861.2 km
B*
2.1698e-5
RAAN
36.3573°
Arg perigee
273.8095°
Mean anomaly
86.2566°
Rev number
15,720

§ Raw data

STARLINK-309191 58411U 23180K   26262.71223527  .00000335  00000+0  21698-4 0  99902 58411  43.0036  36.3573 0001665 273.8095  86.2566 15.27578796157201

JSON: /api/v1/satellites/58411 · /tle

For live sub-satellite position, see the globe view (requires WebGL).

§ Visibility from observer

Set your observer location to see the next 7 days of passes ≥ 10°. The values pass through the URL so the page stays shareable.

No JS? Fill the form by hand. The geolocation button needs JavaScript.